• In Germany
  • List of Countries
  • For 7 days
  • Water Temperature
  • Satellite Maps
  • Weather Map
  • Weather Widgets
  • user-avatar
    Login

    Hourly Weather Ordino

    Today, 20 August, Sunday

    Time Temperature Precipitation Wind Pressure Humidity
    00:00 +12°C° 0 mm 1 mps 638 mmHg 90%
    01:00 +11°C° 0 mm 1 mps 638 mmHg 90%
    02:00 +10°C° 0 mm 2 mps 638 mmHg 90%
    03:00 +9°C° 0 mm 2 mps 638 mmHg 89%
    04:00 +10°C° 0 mm 2 mps 638 mmHg 88%
    05:00 +10°C° 0 mm 2 mps 638 mmHg 86%
    06:00 +10°C° 0 mm 2 mps 638 mmHg 84%
    07:00 +13°C° 0 mm 2 mps 639 mmHg 72%
    08:00 +15°C° 0 mm 2 mps 640 mmHg 61%
    09:00 +18°C° 0 mm 2 mps 641 mmHg 50%
    10:00 +19°C° 0 mm 2 mps 641 mmHg 45%
    11:00 +20°C° 0 mm 2 mps 642 mmHg 40%
    12:00 +23°C° 0 mm 2 mps 642 mmHg 35%
    13:00 +23°C° 0 mm 2 mps 642 mmHg 35%
    14:00 +23°C° 0 mm 2 mps 641 mmHg 35%
    15:00 +23°C° 0 mm 2 mps 641 mmHg 34%
    16:00 +21°C° 0 mm 2 mps 641 mmHg 40%
    17:00 +19°C° 0 mm 2 mps 640 mmHg 46%
    18:00 +18°C° 0 mm 2 mps 639 mmHg 52%
    19:00 +16°C° 0 mm 2 mps 639 mmHg 55%
    20:00 +14°C° 0 mm 2 mps 639 mmHg 59%
    21:00 +12°C° 0 mm 2 mps 638 mmHg 63%
    22:00 +12°C° 0 mm 2 mps 638 mmHg 60%
    23:00 +12°C° 0 mm 2 mps 638 mmHg 58%

    Tomorrow, 21 August, Monday

    Time Temperature Precipitation Wind Pressure Humidity
    00:00 +12°C° 0 mm 1 mps 638 mmHg 56%
    01:00 +12°C° 0 mm 1 mps 638 mmHg 53%
    02:00 +12°C° 0 mm 1 mps 638 mmHg 51%
    03:00 +11°C° 0 mm 1 mps 638 mmHg 48%
    04:00 +12°C° 0 mm 1 mps 638 mmHg 47%
    05:00 +12°C° 0 mm 1 mps 638 mmHg 47%
    06:00 +12°C° 0 mm 1 mps 638 mmHg 46%
    07:00 +15°C° 0 mm 1 mps 639 mmHg 41%
    08:00 +20°C° 0 mm 1 mps 640 mmHg 37%
    09:00 +23°C° 0 mm 1 mps 641 mmHg 32%
    10:00 +24°C° 0 mm 1 mps 641 mmHg 31%
    11:00 +25°C° 0 mm 1 mps 641 mmHg 29%
    12:00 +27°C° 0 mm 1 mps 641 mmHg 28%
    13:00 +27°C° 0 mm 2 mps 641 mmHg 29%
    14:00 +27°C° 0 mm 2 mps 641 mmHg 30%
    15:00 +27°C° 0 mm 2 mps 640 mmHg 31%
    16:00 +25°C° 0 mm 2 mps 640 mmHg 38%
    17:00 +23°C° 0 mm 2 mps 639 mmHg 45%
    18:00 +21°C° 0 mm 1 mps 638 mmHg 53%
    19:00 +20°C° 0 mm 1 mps 638 mmHg 60%
    20:00 +18°C° 0 mm 1 mps 638 mmHg 67%
    21:00 +15°C° 0 mm 1 mps 637 mmHg 74%
    22:00 +15°C° 0 mm 1 mps 637 mmHg 76%
    23:00 +15°C° 0 mm 1 mps 637 mmHg 78%

    Day after tomorrow, 22 August, Tuesday

    Time Temperature Precipitation Wind Pressure Humidity
    00:00 +15°C° 0 mm 1 mps 637 mmHg 80%
    01:00 +14°C° 0 mm 1 mps 637 mmHg 80%
    02:00 +14°C° 0 mm 1 mps 636 mmHg 81%
    03:00 +14°C° 0 mm 1 mps 636 mmHg 81%
    04:00 +15°C° 0 mm 1 mps 636 mmHg 79%
    05:00 +15°C° 0 mm 1 mps 636 mmHg 78%
    06:00 +15°C° 0 mm 1 mps 637 mmHg 76%
    07:00 +19°C° 0 mm 1 mps 638 mmHg 65%
    08:00 +21°C° 0 mm 2 mps 639 mmHg 54%
    09:00 +25°C° 0 mm 2 mps 640 mmHg 43%
    10:00 +26°C° 0 mm 2 mps 640 mmHg 40%
    11:00 +27°C° 0 mm 2 mps 640 mmHg 38%
    12:00 +29°C° 0 mm 2 mps 640 mmHg 35%
    13:00 +28°C° 0.2 mm 2 mps 640 mmHg 38%
    14:00 +27°C° 0.2 mm 2 mps 639 mmHg 41%
    15:00 +26°C° 0.2 mm 2 mps 639 mmHg 44%
    16:00 +25°C° 0.3 mm 2 mps 639 mmHg 50%
    17:00 +24°C° 0.3 mm 1 mps 638 mmHg 56%
    18:00 +22°C° 0.3 mm 1 mps 638 mmHg 62%
    19:00 +21°C° 0.2 mm 1 mps 638 mmHg 67%
    20:00 +19°C° 0.2 mm 1 mps 637 mmHg 73%
    21:00 +16°C° 0.2 mm 1 mps 637 mmHg 78%
    22:00 +16°C° 0.1 mm 1 mps 637 mmHg 79%
    23:00 +16°C° 0.1 mm 1 mps 637 mmHg 80%

    23 August, Wednesday

    Time Temperature Precipitation Wind Pressure Humidity
    00:00 +14°C° 0.1 mm 0 mps 637 mmHg 82%
    01:00 +14°C° 0.1 mm 0 mps 637 mmHg 82%
    02:00 +14°C° 0.1 mm 0 mps 637 mmHg 83%
    03:00 +13°C° 0.1 mm 0 mps 637 mmHg 83%
    04:00 +14°C° 0.2 mm 0 mps 637 mmHg 82%
    05:00 +14°C° 0.2 mm 0 mps 637 mmHg 81%
    06:00 +15°C° 0.2 mm 1 mps 637 mmHg 81%
    07:00 +18°C° 0.2 mm 1 mps 638 mmHg 73%
    08:00 +19°C° 0.2 mm 2 mps 639 mmHg 65%
    09:00 +21°C° 0.2 mm 2 mps 640 mmHg 57%
    10:00 +23°C° 0.3 mm 2 mps 640 mmHg 53%
    11:00 +24°C° 0.3 mm 2 mps 640 mmHg 49%
    12:00 +25°C° 0.3 mm 3 mps 640 mmHg 45%
    13:00 +26°C° 0.2 mm 3 mps 640 mmHg 45%
    14:00 +26°C° 0.2 mm 3 mps 640 mmHg 45%
    15:00 +26°C° 0.2 mm 3 mps 639 mmHg 45%
    16:00 +24°C° 0.2 mm 2 mps 639 mmHg 51%
    17:00 +23°C° 0.2 mm 2 mps 638 mmHg 57%
    18:00 +21°C° 0.2 mm 1 mps 638 mmHg 63%
    19:00 +20°C° 0.2 mm 1 mps 638 mmHg 69%
    20:00 +18°C° 0.2 mm 1 mps 637 mmHg 74%
    21:00 +16°C° 0.2 mm 1 mps 637 mmHg 79%
    22:00 +15°C° 0 mm 1 mps 637 mmHg 79%
    23:00 +15°C° 0 mm 1 mps 637 mmHg 78%

    24 August, Thursday

    Time Temperature Precipitation Wind Pressure Humidity
    00:00 +15°C° 0 mm 1 mps 637 mmHg 78%
    01:00 +15°C° 0 mm 1 mps 636 mmHg 77%
    02:00 +14°C° 0 mm 1 mps 636 mmHg 77%
    03:00 +14°C° 0 mm 1 mps 636 mmHg 76%
    04:00 +14°C° 0 mm 1 mps 636 mmHg 74%
    05:00 +14°C° 0 mm 1 mps 636 mmHg 73%
    06:00 +14°C° 0 mm 1 mps 636 mmHg 71%
    07:00 +18°C° 0 mm 1 mps 637 mmHg 63%
    08:00 +20°C° 0 mm 2 mps 638 mmHg 54%
    09:00 +23°C° 0 mm 2 mps 639 mmHg 46%
    10:00 +24°C° 0 mm 3 mps 640 mmHg 43%
    11:00 +25°C° 0 mm 3 mps 640 mmHg 40%
    12:00 +27°C° 0 mm 3 mps 640 mmHg 37%
    13:00 +27°C° 0 mm 4 mps 640 mmHg 37%
    14:00 +27°C° 0 mm 4 mps 639 mmHg 37%
    15:00 +27°C° 0 mm 4 mps 639 mmHg 37%
    16:00 +25°C° 0 mm 3 mps 639 mmHg 43%
    17:00 +22°C° 0 mm 3 mps 638 mmHg 48%
    18:00 +21°C° 0 mm 2 mps 637 mmHg 54%
    19:00 +19°C° 0 mm 2 mps 637 mmHg 59%
    20:00 +17°C° 0 mm 2 mps 637 mmHg 63%
    21:00 +16°C° 0 mm 2 mps 637 mmHg 67%
    22:00 +15°C° 0 mm 2 mps 637 mmHg 65%
    23:00 +15°C° 0 mm 1 mps 636 mmHg 64%

    25 August, Friday

    Time Temperature Precipitation Wind Pressure Humidity
    00:00 +15°C° 0 mm 1 mps 636 mmHg 62%
    01:00 +15°C° 0 mm 1 mps 636 mmHg 60%
    02:00 +14°C° 0 mm 1 mps 636 mmHg 58%
    03:00 +14°C° 0 mm 1 mps 636 mmHg 56%
    04:00 +14°C° 0 mm 2 mps 636 mmHg 57%
    05:00 +14°C° 0 mm 2 mps 636 mmHg 58%
    06:00 +14°C° 0 mm 2 mps 636 mmHg 59%
    07:00 +17°C° 0 mm 2 mps 637 mmHg 51%
    08:00 +20°C° 0 mm 2 mps 638 mmHg 44%
    09:00 +24°C° 0 mm 3 mps 639 mmHg 36%
    10:00 +25°C° 0 mm 3 mps 639 mmHg 34%
    11:00 +26°C° 0 mm 3 mps 640 mmHg 31%
    12:00 +27°C° 0 mm 4 mps 640 mmHg 28%
    13:00 +27°C° 0 mm 4 mps 640 mmHg 29%
    14:00 +27°C° 0 mm 4 mps 639 mmHg 29%
    15:00 +27°C° 0 mm 4 mps 639 mmHg 30%
    16:00 +25°C° 0 mm 3 mps 638 mmHg 36%
    17:00 +22°C° 0 mm 3 mps 638 mmHg 43%
    18:00 +21°C° 0 mm 2 mps 637 mmHg 49%
    19:00 +19°C° 0 mm 2 mps 637 mmHg 53%
    20:00 +17°C° 0 mm 2 mps 637 mmHg 57%
    21:00 +15°C° 0 mm 2 mps 636 mmHg 61%
    22:00 +15°C° 0 mm 2 mps 636 mmHg 57%
    23:00 +15°C° 0 mm 2 mps 636 mmHg 53%
    Show more